sat.trackr.live / text

‹ back to catalog

2026-027F

NORAD 67751 · 2026-027F

PAYLOAD ACTIVE UNKNOWN

§ Identity

Operator
Country
PRC
Launch date
2026-02-12
Launch site
SCSLA
Launch vehicle
Mass (kg)
RCS (m²)

External: N2YO · Heavens-Above · Gunter

§ Orbital elements

Epoch: 2026-05-25T02:17:32.706816Z

Period
95.24 min
Inclination
97.5047°
Eccentricity
0.0009918
Mean motion
15.11978938 rev/d
Perigee alt
523.3 km
Apogee alt
537.0 km
Semi-major
6,908.3 km
B*
1.0805e-4
RAAN
272.9765°
Arg perigee
185.5880°
Mean anomaly
174.5241°
Rev number
1,542

§ Raw data

2026-027F1 67751U 26027F   26145.09551744  .00001791  00000+0  10805-3 0  99902 67751  97.5047 272.9765 0009918 185.5880 174.5241 15.11978938 15428

JSON: /api/v1/satellites/67751 · /tle

For live sub-satellite position, see the globe view (requires WebGL).

§ Visibility from observer

Set your observer location to see the next 7 days of passes ≥ 10°. The values pass through the URL so the page stays shareable.

No JS? Fill the form by hand. The geolocation button needs JavaScript.